Weather Roundup
Issued by NWS

Home | Current Version | Previous Version | Text Only | Print | Product List | Glossary On
Versions: 1 2 3 4 5 6 7 8 9 10 11 12 13 14 15 16 17 18 19 20 21 22 23 24 25 26 27 28 29 30 31 32 33 34 35 36 37 38 39 40 41 42 43 44 45 46 47 48 49 50
000
NZUS93 KARX 231910
HRRWXR

CURRENT HOURLY OBSERVATIONS ACROSS
MUCH OF THE UPPER MISSISSIPPI VALLEY
NATIONAL WEATHER SERVICE LA CROSSE WI
200 PM CDT TUE SEP 23 2014


...SOUTHEAST MINNESOTA...


CITY           SKY/WX    TMP DP  RH WIND       PRES   REMARKS
ROCHESTER      PTSUNNY   70  50  49 S14       30.25F
ROCHESTER/MAYO FAIR      69  46  43 S10       30.24F
WINONA         MOSUNNY   73  52  46 S6        30.24F
AUSTIN         PTSUNNY   72  52  49 S12       30.22F
ALBERT LEA     MOSUNNY   72  48  43 S14       30.20F
DODGE CENTER   PTSUNNY   70  52  52 S14G20    30.23F
PRESTON        MOSUNNY   70  55  59 S10G16    30.26F
OWATONNA       PTSUNNY   73  50  43 S13G18    30.20F
FARIBAULT      PTSUNNY   75  46  35 SE15      30.21F
$$

...ELSEWHERE IN MINNESOTA...


CITY           SKY/WX    TMP DP  RH WIND       PRES   REMARKS
MINNEAPOLIS    PTSUNNY   71  50  47 S15G22    30.19F
INTNL FALLS    SUNNY     73  48  41 S8G17     30.11F
DULUTH         SUNNY     73  50  44 SW14      30.19F
RED WING       MOSUNNY   75  48  38 S8        30.20F
REDWOOD FALLS  CLOUDY    69  53  56 S17G23    30.13F
MANKATO        PTSUNNY   72  48  43 S15       30.17F
WORTHINGTON    CLOUDY    63  54  72 S13G20    30.16F
FAIRMONT       PTSUNNY   72  48  43 S18G24    30.16F
$$

...SOUTHWEST WISCONSIN...


CITY           SKY/WX    TMP DP  RH WIND       PRES   REMARKS
LA CROSSE      MOSUNNY   75  50  41 S12       30.25F
PRAIRIE DU CHI SUNNY     71  46  41 SE7       30.27F
BOSCOBEL       MOSUNNY   75  50  41 VRB5      30.28F
LONE ROCK      SUNNY     76  49  38 MISG      30.28F
PLATTEVILLE    SUNNY     72  47  41 S6        30.30F
FORT MC COY    SUNNY     72  47  41 S9        30.27F
CAMP DOUGLAS   MOSUNNY   73  52  46 S9        30.27F
VIROQUA        FAIR      70  50  47 S8        30.28F
WIS DELLS      SUNNY     73  47  39 S8        30.28F
$$

...ELSEWHERE IN WISCONSIN...


CITY           SKY/WX    TMP DP  RH WIND       PRES   REMARKS
MILWAUKEE      MOSUNNY   73  50  44 VRB5      30.30F
MADISON        MOSUNNY   73  49  42 S8        30.29F
GREEN BAY      SUNNY     73  53  49 SW9       30.28F
EAU CLAIRE     SUNNY     73  49  42 S13G20    30.23F
BLACK RVR FLS  FAIR      73  50  44 SW7       30.26S
MEDFORD        SUNNY     70  51  50 SW8       30.27F
WAUSAU         SUNNY     72  50  45 W7        30.26F
WIS RAPIDS     SUNNY     72  51  47 MISG      30.28F
MARSHFIELD     SUNNY     72  50  45 SW9       30.26F
RICE LAKE      SUNNY     71  48  45 S13G20    30.24F
$$

...NORTHEAST IOWA...


CITY           SKY/WX    TMP DP  RH WIND       PRES   REMARKS
WATERLOO       MOSUNNY   73  50  44 S13       30.23F
DUBUQUE        SUNNY     70  47  43 S13       30.30F
DECORAH        MOSUNNY   70  50  49 VRB8G15   30.26F
MASON CITY     MOSUNNY   72  51  47 S12G25    30.22F
CHARLES CITY   MOSUNNY   73  50  43 S10G17    30.24F
OELWEIN        PTSUNNY   73  48  40 S12G18    30.27F
$$

...ELSEWHERE IN IOWA...


CITY           SKY/WX    TMP DP  RH WIND       PRES   REMARKS
DES MOINES     CLOUDY    70  51  51 S13       30.22F
IOWA CITY      MOSUNNY   73  50  44 S12       30.28F
FORT DODGE     CLOUDY    68  50  52 S9G16     30.20F
MARSHALLTOWN   PTSUNNY   71  51  49 S12       30.23F
CEDAR RAPIDS   MOSUNNY   71  50  47 S7        30.26F
$$

...NORTHERN ILLINOIS...


CITY           SKY/WX    TMP DP  RH WIND       PRES   REMARKS
CHICAGO-OHARE  MOSUNNY   69  46  43 SW6       30.32F
DUPAGE         SUNNY     73  49  42 S8        30.32F
CHICAGO-MIDWAY MOSUNNY   73  49  42 SW8       30.33F
MOLINE         SUNNY     73  46  38 SE5       30.28F
ROCKFORD       MOSUNNY   73  48  41 CALM      30.31F
STERLING       SUNNY     73  48  40 W3        30.30F
PEORIA         SUNNY     74  47  38 S8        30.30F
$$

NOTE: "FAIR" INDICATES FEW OR NO CLOUDS BELOW 12,000 FEET WITH NO
SIGNIFICANT WEATHER AND/OR OBSTRUCTIONS TO VISIBILITY. WIND
SPEEDS ARE IN MILES-PER-HOUR.



USA.gov is the U.S. government's official web portal to all federal, state and local government web resources and services.